www.pogodaiklimat.ru

Погода и климат >> Архив погоды >> Канада >> Нунавут >> Джойа Хейвен


ПОГОДА в Джойа Хейвен

  • Прогноз погоды в Джойа Хейвен
  • Монитор погоды в Джойа Хейвен

АРХИВ ПОГОДЫ в Джойа Хейвен

Время (UTC), дата Ветер
(напр.,м/с)
 
Видим.   Явления Облачность Т
(С)
Тd
(С)
f
(%)
Тe
(С)
Тes
(С)
Комфортность P
(гПа)
Po
(гПа)
Тmin
(С)
Tmax
(С)
R
(мм)
R24
(мм)
S
(см)
18 14.05 СВ 7 н/о н/о -3.1 -3.4 98 -11 -11 1022.8 1017.4 -6.8 -2.9
21 14.05 СВ 7 н/о н/о -1.9 -2.2 98 -10 -10 1022.8 1017.4
00 15.05 С 6 н/о н/о -2.0 -2.2 99 -9 -9 1022.6 1017.2 -5.6 -1.6
03 15.05 СВ 6 н/о н/о -2.5 -2.6 99 -10 -10 1022.2 1016.8
06 15.05 СВ 6 н/о н/о -5.7 -6.1 97 -14 -14 1022.5 1017.1 -5.8 -1.6 3
09 15.05 СВ 5 н/о н/о -6.3 -6.9 95 -14 -14 1023.0 1017.6
12 15.05 С 6 н/о н/о -6.6 -7.3 95 -15 -15 1023.8 1018.4 -7.1 -1.6 74
15 15.05 н/о н/о -3.6 -4.1 96 1023.7 1018.3
18 15.05 С 9 н/о н/о -4.4 -4.9 96 -14 -14 1022.5 1017.1 -7.1 -3.3
21 15.05 н/о н/о -3.8 -4.2 97 1022.3 1016.9
00 16.05 С 9 н/о н/о -4.9 -5.4 96 -14 -14 1022.7 1017.2 -7.1 -3.3
03 16.05 н/о н/о -6.7 -7.4 95 1022.2 1016.8
06 16.05 С 8 н/о н/о -9.7 -10.8 92 -19 -19 1022.6 1017.1 -9.8 -3.3 17
09 16.05 С 6 н/о н/о -12.0 -13.4 89 -21 -21 1023.1 1017.6
12 16.05 С 7 н/о н/о -12.4 -13.8 89 -22 -22 1023.7 1018.2 -12.5 -3.3 73
15 16.05 С 6 н/о н/о -9.7 -10.9 91 -18 -18 1024.2 1018.7
18 16.05 н/о н/о -7.0 -7.9 93 1024.4 1018.9 -12.5 -6.9
21 16.05 С 7 н/о н/о -6.3 -7.0 95 -15 -15 1024.6 1019.1
00 17.05 С 7 н/о н/о -6.7 -7.5 94 -16 -16 1025.1 1019.6 -12.5 -5.9
03 17.05 С 7 н/о н/о -8.9 -9.9 92 -18 -18 1025.6 1020.1
06 17.05 н/о н/о -11.6 -12.9 90 1026.2 1020.7 -12.5 -5.9 7
09 17.05 С 5 н/о н/о -13.2 -14.7 88 -22 -22 1027.1 1021.6
12 17.05 н/о н/о -12.7 -14.2 89 1028.3 1022.8 -13.7 -5.9 73
15 17.05 С 6 н/о н/о -10.2 -11.4 91 -19 -19 1028.7 1023.2
18 17.05 н/о н/о -8.0 -9.0 92 1029.4 1023.9 -13.7 -7.9
21 17.05 С 4 н/о н/о -7.1 -8.1 93 -14 -14 1030.3 1024.7
00 18.05 СЗ 3 н/о н/о -7.0 -7.9 93 -13 -13 1030.7 1025.1 -13.7 -6.9
03 18.05 СВ 3 н/о н/о -9.4 -10.4 92 -15 -15 1030.7 1025.2
06 18.05 н/о н/о -11.8 -13.1 90 1031.5 1025.9 -13.7 -6.9
09 18.05 С 4 н/о н/о -11.4 -12.6 91 -18 -18 1032.0 1026.5
12 18.05 СЗ 3 н/о н/о -10.6 -11.7 92 -16 -16 1032.6 1027.1 -11.9 -6.9 73
15 18.05 СЗ 2 н/о н/о -9.3 -10.5 91 -13 -13 1032.6 1027.0
18 18.05 СЗ 2 н/о н/о -7.9 -9.0 92 -12 -12 1032.6 1027.0 -11.9 -7.9
21 18.05 СЗ 2 н/о н/о -6.5 -7.5 93 -10 -10 1032.6 1027.1
00 19.05 С 2 н/о н/о -6.8 -7.6 94 -11 -11 1032.5 1027.0 -11.9 -6.0
03 19.05 СВ 2 н/о н/о -9.4 -10.3 93 -13 -13 1032.0 1026.4
06 19.05 СВ 2 н/о н/о -10.9 -12.1 91 -15 -15 1032.1 1026.5 -11.9 -6.0
09 19.05 СВ 1 н/о н/о -10.5 -11.7 91 -11 -11 1031.6 1026.1
12 19.05 штиль 0 н/о {осадки} н/о -9.3 -10.5 91 -10 -10 1031.8 1026.3 -11.5 -6.0 0.2 70
15 19.05 штиль 0 н/о н/о -8.1 -9.2 92 -9 -9 1031.0 1025.5 0.2
18 19.05 ЮВ 2 н/о н/о -7.1 -8.0 93 -12 -12 1030.3 1024.8 -11.5 -7.0 0.2
21 19.05 Ю 3 н/о н/о -6.0 -6.7 95 -11 -11 1029.5 1024.0
00 20.05 ЮВ 3 н/о н/о -5.6 -6.3 95 -11 -11 1028.6 1023.1 -10.9 -5.5
03 20.05 ЮВ 4 н/о н/о -6.9 -7.5 95 -14 -14 1027.3 1021.8
06 20.05 В 4 н/о н/о -7.4 -8.1 95 -14 -14 1026.3 1020.8 -10.9 -5.5
09 20.05 В 4 н/о н/о -7.3 -8.1 94 -14 -14 1025.1 1019.6
12 20.05 В 3 н/о н/о -6.8 -7.6 94 -13 -13 1024.1 1018.6 -7.6 -5.5 73
15 20.05 СВ 4 н/о н/о -6.6 -7.4 94 -13 -13 1023.2 1017.7
18 20.05 СВ 6 н/о н/о -5.7 -6.4 95 -14 -14 1022.4 1016.9 -7.6 -5.6
21 20.05 СВ 7 н/о н/о -4.6 -5.2 96 -13 -13 1022.1 1016.6
00 21.05 СВ 6 н/о н/о -5.8 -6.4 96 -14 -14 1022.2 1016.7 -7.6 -4.3
03 21.05 С 7 н/о н/о -7.2 -8.1 93 -16 -16 1021.9 1016.4
06 21.05 С 7 н/о н/о -8.6 -9.6 92 -18 -18 1022.1 1016.6 -8.6 -4.3 5
09 21.05 С 5 н/о н/о -8.5 -9.5 92 -16 -16 1022.6 1017.1
12 21.05 СВ 4 н/о н/о -8.7 -9.7 92 -15 -15 1023.4 1017.9 -8.8 -4.3 73
15 21.05 С 4 н/о н/о -8.4 -9.4 92 -15 -15 1023.7 1018.2

 

Местоположение метеостанции Джойа Хейвен (Нунавут, Канада): широта 68.63 долгота -95.85 высота над уровнем моря 43 м.

В архиве по умолчанию представлена погода в Джойа Хейвен за последнюю неделю. Архивные данные за месяц целиком и за предыдущие месяцы, начиная с января 2011 года, Вы можете получить, выбрав интересующий диапазон дат из раскрывающегося списка и нажав кнопку "Ввод!".


*Определитесь, кто Вы:
робот инопланетянин человек

Внимание! Время в таблицах - всемирное. Для получения местного времени необходимо прибавить поправку, которая равна -6 ч.

Смотрите также архив погоды в соседних городах и на ближайших метеорологических станциях:

Погода в Шеперд-Бее (Нунавут, Канада) (100 км)
Погода в Талойоаке (Нунавут, Канада) (136 км)
Погода на Острове Хат (Нунавут, Канада) (173 км)
Погода в Кугааруке (Нунавут, Канада) (246 км)
Погода в Кам Фор (Нунавут, Канада) (251 км)
Погода в Глеичене (Альберта, Канада) (285 км)
Погода в Кеймбридж-Бее (Нунавут, Канада) (374 км)
Погода в Кембридж Бэй (Нунавут, Канада) (374 км)
Погода в Вейджер Бэй (Нунавут, Канада) (412 км)
Погода в Бейкер Лейк (Нунавут, Канада) (479 км)

Пояснения к столбцам:

Ветер - указаны скорость ветра в м/с - средняя за 10 мин, порывы в срок и между сроками (в фигурных скобках) и направление, откуда дует ветер: С - северный, СВ - северо-восточный, В - восточный, ЮВ - юго-восточный, Ю - южный, ЮЗ - юго-западный, З - западный, СЗ - северо-западный.
Видимость - горизонтальная дальность видимости в метрах или километрах. При видимости от 1 до 10 км при отсутствии осадков обычно наблюдается дымка, при ухудшении видимости до 1 км и менее - туман. В сухую погоду видимость может ухудшаться дымом, пылью или мглою.
Явления - указаны атмосферные явления, наблюдавшиеся в срок или в последний час перед сроком; фигурными скобками обозначены явления, наблюдавшиеся между сроками (за 1-3 часа до срока); квадратными скобками обозначены град или гололедные отложения с указанием их диаметра в мм.
Облачность - указаны через наклонную черту общая и нижняя облачность в баллах и высота нижней границы облаков в метрах; квадратными скобками обозначены формы облаков: Ci - перистые, Cs - перисто-слоистые, Cc - перисто-кучевые, Ac - высококучевые, As - высокослоистые, Sc - слоисто-кучевые, Ns - слоисто-дождевые, Cu - кучевые, Cb - кучево-дождевые. Подробнее классификацию облаков см. в Атласе облаков (PDF).
T - Температура воздуха - температура, измеренная на высоте 2 м над землей.
Td - Температура точки росы - температура, при понижении до которой содержащийся в воздухе водяной пар достигнет насыщения.
f - Относительная влажность воздуха - влажноcть воздуха, измеренная на высоте 2 м над землей.
Te - Эффективная температура - температура, которую ощущает одетый по сезону человек в тени. Характеристика душности погоды. При расчете учитывается влияние влажности воздуха и скорости ветра на теплоощущения человека.
Tes - Эффективная температура на солнце - температура, которую ощущает человек, с поправкой на солнечный нагрев. Характеристика знойности погоды. Зависит от высоты солнца над горизонтом, облачности и скорости ветра. Ночью, в пасмурную погоду, а также при ветре 12 м/с и более поправка равна нулю.
P - Атмосферное давление - приведенное к уровню моря атмосферное давление.
Po - Атмосферное давление - измеренное на уровне метеостанции атмосферное давление.
Tmin - Минимальная температура - минимум температуры воздуха на высоте 2 м над землей.
Tmax - Максимальная температура - максимум температуры воздуха на высоте 2 м над землей.
R - Количество осадков - Количество выпавших осадков за период времени, мм. При наведении курсора мыши на число - период времени, за который выпало указанное количество осадков.
R24 - Количество осадков - Количество выпавших осадков за 24 часа, мм.
S - Снежный покров - Высота снежного покрова, см. При наведении курсора мыши на число - состояние снежного покрова и степень покрытия местности в баллах.